FW1417 Weather Reports


Display with metric or nautical units.
time (UTC)temp
F
wind
direction
speed
MPH
gust
MPH
rain 1hr
in
rain 24hr
in
rain mn
in
humidity
%
barometer
mb
20190117125203 25 318 3.0 10.0 0.00 0.00 0.00 56 1029.2
20190117124703 25 65 3.0 9.0 0.00 0.00 0.00 56 1029.1
20190117124207 25 326 3.0 7.0 0.00 0.00 0.00 56 1029.0
20190117123703 25 355 4.0 7.0 0.00 0.00 0.00 56 1029.0
20190117123203 25 342 3.0 12.0 0.00 0.00 0.00 56 1028.9
20190117122704 25 315 4.0 12.0 0.00 0.00 0.00 56 1028.9
20190117122204 25 316 5.0 12.0 0.00 0.00 0.00 56 1028.9
20190117121703 25 332 5.0 10.0 0.00 0.00 0.00 56 1028.9
20190117121203 25 297 3.0 7.0 0.00 0.00 0.00 56 1028.9
20190117120703 25 327 2.0 7.0 0.00 0.00 0.00 56 1028.8
20190117120203 25 303 5.0 9.0 0.00 0.00 0.00 55 1028.8
20190117115703 25 334 4.0 9.0 0.00 0.00 0.00 55 1028.7
20190117115204 25 317 3.0 9.0 0.00 0.00 0.00 55 1028.7
20190117114704 25 344 5.0 9.0 0.00 0.00 0.00 54 1028.5
20190117114204 25 9 2.0 9.0 0.00 0.00 0.00 54 1028.4
20190117113703 25 355 6.0 9.0 0.00 0.00 0.00 54 1028.4
20190117113203 25 5 5.0 12.0 0.00 0.00 0.00 54 1028.4
20190117112703 26 306 4.0 12.0 0.00 0.00 0.00 53 1028.4
20190117112203 26 327 4.0 9.0 0.00 0.00 0.00 53 1028.2
20190117111704 26 11 3.0 9.0 0.00 0.00 0.00 53 1028.0
20190117111203 26 340 4.0 10.0 0.00 0.00 0.00 53 1028.0
20190117110703 26 355 6.0 10.0 0.00 0.00 0.00 53 1027.9
20190117110203 26 15 5.0 10.0 0.00 0.00 0.00 52 1027.9
20190117105703 26 355 3.0 8.0 0.00 0.00 0.00 52 1027.8
20190117105203 26 321 3.0 8.0 0.00 0.00 0.00 52 1027.8
20190117104703 26 344 3.0 6.0 0.00 0.00 0.00 52 1027.8
20190117104203 26 358 3.0 10.0 0.00 0.00 0.00 52 1027.8
20190117103704 26 11 2.0 10.0 0.00 0.00 0.00 52 1027.7
20190117103204 26 310 4.0 7.0 0.00 0.00 0.00 51 1027.5
20190117102703 26 31 3.0 6.0 0.00 0.00 0.00 51 1027.5
20190117102203 26 338 3.0 6.0 0.00 0.00 0.00 51 1027.5
20190117101704 26 273 3.0 9.0 0.00 0.00 0.00 51 1027.4
20190117101203 26 334 5.0 9.0 0.00 0.00 0.00 50 1027.4
20190117100703 26 13 5.0 9.0 0.00 0.00 0.00 50 1027.3
20190117100204 27 11 5.0 7.0 0.00 0.00 0.00 50 1027.0
20190117095703 27 303 2.0 9.0 0.00 0.00 0.00 50 1026.9
20190117095203 27 342 4.0 9.0 0.00 0.00 0.00 49 1027.0
20190117094704 27 314 3.0 9.0 0.00 0.00 0.00 48 1026.9
20190117094203 27 346 5.0 9.0 0.00 0.00 0.00 47 1026.9
20190117093704 27 5 5.0 10.0 0.00 0.00 0.00 47 1026.9
20190117093203 27 311 5.0 10.0 0.00 0.00 0.00 46 1026.9
20190117092703 27 292 5.0 10.0 0.00 0.00 0.00 46 1026.8
20190117092203 27 318 4.0 9.0 0.00 0.00 0.00 45 1026.8
20190117091704 27 337 4.0 14.0 0.00 0.00 0.00 45 1026.8
20190117091204 27 313 5.0 14.0 0.00 0.00 0.00 44 1026.7
20190117090703 27 346 7.0 15.0 0.00 0.00 0.00 43 1026.4
20190117090203 27 292 9.0 15.0 0.00 0.00 0.00 42 1026.4
20190117085703 27 348 5.0 14.0 0.00 0.00 0.00 42 1026.6
20190117085203 28 355 6.0 14.0 0.00 0.00 0.00 41 1026.8
20190117084703 28 355 6.0 14.0 0.00 0.00 0.00 41 1026.8
20190117084204 28 290 6.0 14.0 0.00 0.00 0.00 40 1026.8
20190117083704 28 340 5.0 13.0 0.00 0.00 0.00 40 1026.8
20190117083204 28 323 4.0 14.0 0.00 0.00 0.00 40 1026.6
20190117082704 28 348 5.0 14.0 0.00 0.00 0.00 39 1026.6
20190117082206 29 11 6.0 10.0 0.00 0.00 0.00 41 1026.5
20190117081704 29 325 1.0 6.0 0.00 0.00 0.00 43 1026.4
20190117081204 29 337 1.0 6.0 0.00 0.00 0.00 44 1026.4
20190117080703 29 288 1.0 6.0 0.00 0.00 0.00 44 1026.4
20190117080203 29 324 2.0 10.0 0.00 0.00 0.00 44 1026.3
20190117075704 29 306 4.0 10.0 0.00 0.00 0.00 43 1026.3
20190117075204 29 333 3.0 9.0 0.00 0.00 0.00 43 1026.2
20190117074704 29 305 2.0 9.0 0.00 0.00 0.00 42 1026.2
20190117074203 29 294 4.0 9.0 0.00 0.00 0.00 41 1026.3
20190117073704 29 321 3.0 13.0 0.00 0.00 0.00 41 1026.3
20190117073204 29 34 3.0 13.0 0.00 0.00 0.00 41 1026.3
20190117072704 29 303 6.0 14.0 0.00 0.00 0.00 41 1026.3
20190117072204 29 305 5.0 14.0 0.00 0.00 0.00 42 1026.1
20190117071704 29 9 6.0 16.0 0.00 0.00 0.00 43 1025.9
20190117071204 30 355 7.0 16.0 0.00 0.00 0.00 43 1025.8
20190117070704 30 322 6.0 16.0 0.00 0.00 0.00 44 1025.8
20190117070204 30 324 7.0 14.0 0.00 0.00 0.00 43 1025.7
20190117065704 30 319 3.0 13.0 0.00 0.00 0.00 43 1025.6
20190117065203 30 319 5.0 14.0 0.00 0.00 0.00 42 1025.7
20190117064704 30 309 6.0 18.0 0.00 0.00 0.00 43 1025.7
20190117064204 30 272 8.0 18.0 0.00 0.00 0.00 43 1025.6
20190117063704 31 296 7.0 14.0 0.00 0.00 0.00 46 1025.6
20190117063203 31 321 4.0 14.0 0.00 0.00 0.00 49 1025.3
20190117062703 31 258 5.0 14.0 0.00 0.00 0.00 51 1025.3
20190117062204 31 289 4.0 16.0 0.00 0.00 0.00 51 1025.0
20190117061703 31 320 8.0 16.0 0.00 0.00 0.00 51 1024.9
20190117061204 31 329 6.0 16.0 0.00 0.00 0.00 51 1024.8
20190117060703 32 311 6.0 16.0 0.00 0.00 0.00 51 1024.8
20190117060204 32 351 6.0 16.0 0.00 0.00 0.00 51 1024.8
20190117055703 32 316 4.0 16.0 0.00 0.00 0.00 51 1024.7
20190117055204 32 40 5.0 14.0 0.00 0.00 0.00 51 1024.4
20190117054703 32 332 6.0 14.0 0.00 0.00 0.00 51 1024.4
20190117054203 33 336 6.0 14.0 0.00 0.00 0.00 51 1024.3
20190117053703 33 320 4.0 12.0 0.00 0.00 0.00 52 1024.3
20190117053204 33 313 5.0 13.0 0.00 0.00 0.00 51 1024.2
20190117052203 33 331 6.0 16.0 0.00 0.00 0.00 51 1023.9
20190117051703 33 338 6.0 13.0 0.00 0.00 0.00 51 1023.9
20190117051204 34 310 6.0 13.0 0.00 0.00 0.00 51 1023.8
20190117050703 34 15 7.0 14.0 0.00 0.00 0.00 52 1023.8
20190117050203 34 324 7.0 14.0 0.00 0.00 0.00 52 1023.8
20190117045704 34 305 6.0 12.0 0.00 0.00 0.00 52 1023.8
20190117045204 34 351 4.0 13.0 0.00 0.00 0.00 53 1023.8
20190117044704 34 343 6.0 13.0 0.00 0.00 0.00 53 1023.8
20190117044204 35 333 5.0 12.0 0.00 0.00 0.00 53 1023.7
20190117043704 35 341 5.0 13.0 0.00 0.00 0.00 53 1023.7
20190117043204 35 350 6.0 13.0 0.00 0.00 0.00 53 1023.6
20190117042703 35 307 6.0 12.0 0.00 0.00 0.00 53 1023.4
20190117042203 35 341 6.0 12.0 0.00 0.00 0.00 52 1023.3
20190117041703 35 0 6.0 13.0 0.00 0.00 0.00 53 1023.2
20190117041204 36 319 5.0 13.0 0.00 0.00 0.00 53 1023.2
20190117040703 36 356 5.0 12.0 0.00 0.00 0.00 53 1023.2
20190117040204 36 358 6.0 12.0 0.00 0.00 0.00 53 1023.1
20190117035704 36 320 4.0 14.0 0.00 0.00 0.00 53 1023.0
20190117035205 36 293 5.0 14.0 0.00 0.00 0.00 52 1023.0
20190117034705 36 355 7.0 13.0 0.00 0.00 0.00 52 1023.0
20190117034204 36 339 8.0 13.0 0.00 0.00 0.00 52 1022.9
20190117033704 37 336 6.0 14.0 0.00 0.00 0.00 53 1022.7
20190117033204 37 353 8.0 14.0 0.00 0.00 0.00 53 1022.7
20190117032704 37 344 3.0 12.0 0.00 0.00 0.00 53 1022.6
20190117032203 37 339 5.0 15.0 0.00 0.00 0.00 53 1022.5
20190117031705 37 338 7.0 15.0 0.00 0.00 0.00 53 1022.4
20190117031204 37 318 7.0 16.0 0.00 0.00 0.00 53 1022.4
20190117030703 38 337 6.0 16.0 0.00 0.00 0.00 53 1022.3
20190117030204 38 302 5.0 13.0 0.00 0.00 0.00 54 1022.2
20190117025704 38 311 7.0 13.0 0.00 0.00 0.00 54 1022.2
20190117025204 38 297 3.0 13.0 0.00 0.00 0.00 55 1022.1
20190117024203 38 304 3.0 14.0 0.00 0.00 0.00 55 1021.8
20190117023204 38 344 6.0 14.0 0.00 0.00 0.00 56 1021.7
20190117022703 38 308 5.0 14.0 0.00 0.00 0.00 56 1021.5
20190117022203 38 274 2.0 6.0 0.00 0.00 0.00 57 1021.2
20190117021704 38 259 1.0 7.0 0.00 0.00 0.00 57 1021.1
20190117021204 38 286 1.0 7.0 0.00 0.00 0.00 56 1021.0
20190117020703 38 240 3.0 7.0 0.00 0.00 0.00 56 1020.8
20190117020207 38 266 2.0 12.0 0.00 0.00 0.00 56 1020.7
20190117015704 38 250 2.0 12.0 0.00 0.00 0.00 56 1020.7
20190117015204 38 219 4.0 9.0 0.00 0.00 0.00 56 1020.6
20190117014703 38 252 2.0 6.0 0.00 0.00 0.00 56 1020.6
20190117014204 38 238 2.0 12.0 0.00 0.00 0.00 56 1020.5
20190117013704 38 265 3.0 12.0 0.00 0.00 0.00 56 1020.4
20190117013203 38 245 5.0 12.0 0.00 0.00 0.00 56 1020.4
20190117012704 38 234 4.0 9.0 0.00 0.00 0.00 56 1020.2
20190117012204 38 250 2.0 6.0 0.00 0.00 0.00 56 1020.1
20190117011704 38 213 3.0 7.0 0.00 0.00 0.00 56 1020.1
20190117011203 38 276 3.0 7.0 0.00 0.00 0.00 56 1020.1
20190117010704 38 239 2.0 7.0 0.00 0.00 0.00 56 1020.1
20190117010204 38 236 2.0 7.0 0.00 0.00 0.00 56 1020.1
20190117005704 38 221 3.0 9.0 0.00 0.00 0.00 55 1020.1
20190117005204 38 252 5.0 9.0 0.00 0.00 0.00 55 1020.1
20190117004703 38 288 2.0 9.0 0.00 0.00 0.00 55 1020.1
20190117004203 38 231 2.0 7.0 0.00 0.00 0.00 55 1020.0
20190117003703 38 234 3.0 7.0 0.00 0.00 0.00 55 1020.0
20190117003204 39 217 2.0 7.0 0.00 0.00 0.00 55 1020.0
20190117002704 39 257 4.0 10.0 0.00 0.00 0.00 54 1019.9
20190117002204 39 223 4.0 10.0 0.00 0.00 0.00 54 1019.7
20190117001704 39 243 5.0 10.0 0.00 0.00 0.00 54 1019.7
20190117001203 39 235 5.0 10.0 0.00 0.00 0.00 54 1019.6
20190117000704 39 232 5.0 10.0 0.00 0.00 0.00 54 1019.6
20190117000203 39 246 3.0 12.0 0.00 0.00 0.00 54 1019.6
20190116235708 39 245 4.0 12.0 0.00 0.00 0.00 54 1019.6
20190116235204 39 271 5.0 12.0 0.00 0.00 0.00 54 1019.6
20190116234703 39 228 4.0 12.0 0.00 0.00 0.00 54 1019.6
20190116234204 39 273 3.0 12.0 0.00 0.00 0.00 54 1019.5
20190116233703 39 202 3.0 12.0 0.00 0.00 0.00 54 1019.3
20190116233203 39 239 1.0 10.0 0.00 0.00 0.00 54 1019.2
20190116232703 39 236 4.0 12.0 0.00 0.00 0.00 54 1019.2
20190116232204 39 231 2.0 12.0 0.00 0.00 0.00 54 1019.2
20190116231703 39 256 4.0 10.0 0.00 0.00 0.00 54 1019.1
20190116231204 39 298 3.0 10.0 0.00 0.00 0.00 54 1019.1
20190116230703 39 246 5.0 10.0 0.00 0.00 0.00 53 1019.1
20190116230203 39 264 3.0 12.0 0.00 0.00 0.00 53 1019.1
20190116225703 39 245 5.0 12.0 0.00 0.00 0.00 53 1019.0
20190116225203 39 266 3.0 10.0 0.00 0.00 0.00 53 1018.8
20190116224704 39 270 3.0 12.0 0.00 0.00 0.00 53 1018.8
20190116224204 39 234 3.0 12.0 0.00 0.00 0.00 53 1018.6
20190116223704 39 209 2.0 12.0 0.00 0.00 0.00 53 1018.6
20190116223203 39 202 4.0 10.0 0.00 0.00 0.00 53 1018.6
20190116222703 39 287 3.0 10.0 0.00 0.00 0.00 53 1018.6
20190116222204 39 273 5.0 12.0 0.00 0.00 0.00 53 1018.5
20190116221703 39 242 6.0 12.0 0.00 0.00 0.00 53 1018.5
20190116221204 39 247 5.0 12.0 0.00 0.00 0.00 53 1018.4
20190116220704 39 238 2.0 12.0 0.00 0.00 0.00 53 1018.4
20190116220204 39 276 3.0 12.0 0.00 0.00 0.00 53 1018.3
20190116215703 39 264 5.0 12.0 0.00 0.00 0.00 53 1018.2
20190116215204 39 259 4.0 12.0 0.00 0.00 0.00 53 1018.2
20190116214704 39 259 6.0 12.0 0.00 0.00 0.00 53 1018.1
20190116214203 39 271 7.0 12.0 0.00 0.00 0.00 53 1018.0
20190116213703 39 317 3.0 12.0 0.00 0.00 0.00 54 1018.0
20190116213204 39 338 3.0 12.0 0.00 0.00 0.00 53 1018.0
20190116212704 39 274 2.0 12.0 0.00 0.00 0.00 54 1017.9
20190116212203 39 267 3.0 12.0 0.00 0.00 0.00 53 1017.9
20190116211704 39 281 2.0 10.0 0.00 0.00 0.00 53 1017.9
20190116211204 39 283 4.0 14.0 0.00 0.00 0.00 53 1017.7
20190116210704 39 244 3.0 14.0 0.00 0.00 0.00 53 1017.6
20190116210204 39 274 6.0 14.0 0.00 0.00 0.00 53 1017.6
20190116205704 39 251 4.0 15.0 0.00 0.00 0.00 54 1017.5
20190116205204 39 273 6.0 15.0 0.00 0.00 0.00 54 1017.5
20190116204704 39 252 5.0 12.0 0.00 0.00 0.00 55 1017.5
20190116204204 39 250 3.0 12.0 0.00 0.00 0.00 55 1017.5
20190116203704 39 246 3.0 12.0 0.00 0.00 0.00 56 1017.5
20190116203203 39 246 3.0 12.0 0.00 0.00 0.00 57 1017.5
20190116202704 39 268 3.0 12.0 0.00 0.00 0.00 57 1017.4
20190116202204 39 240 5.0 12.0 0.00 0.00 0.00 58 1017.3
20190116201704 39 311 7.0 14.0 0.00 0.00 0.00 58 1017.2
20190116201203 39 254 3.0 14.0 0.00 0.00 0.00 58 1017.1
20190116200704 39 251 5.0 14.0 0.00 0.00 0.00 58 1017.2
20190116200204 39 243 6.0 14.0 0.00 0.00 0.00 59 1017.1
20190116195704 39 280 5.0 12.0 0.00 0.00 0.00 59 1017.1
20190116195204 39 254 4.0 12.0 0.00 0.00 0.00 59 1017.1
20190116194703 39 228 5.0 12.0 0.00 0.00 0.00 59 1017.1
20190116194204 39 215 4.0 12.0 0.00 0.00 0.00 59 1017.1
20190116193704 39 274 6.0 12.0 0.00 0.00 0.00 59 1017.1
20190116193204 39 213 2.0 12.0 0.00 0.00 0.00 60 1017.0
20190116192703 38 227 3.0 12.0 0.00 0.00 0.00 60 1017.1
20190116192204 38 232 6.0 12.0 0.00 0.00 0.00 60 1017.1
20190116191703 38 274 4.0 12.0 0.00 0.00 0.00 60 1017.1
20190116191204 38 209 2.0 9.0 0.00 0.00 0.00 60 1017.2
20190116190704 38 259 6.0 10.0 0.00 0.00 0.00 60 1017.3
20190116190204 38 235 6.0 12.0 0.00 0.00 0.00 60 1017.1
20190116185704 38 284 6.0 12.0 0.00 0.00 0.00 60 1017.1
20190116185204 38 215 5.0 12.0 0.00 0.00 0.00 60 1017.0
20190116184704 38 232 5.0 12.0 0.00 0.00 0.00 60 1017.0
20190116184204 38 281 5.0 12.0 0.00 0.00 0.00 60 1017.1
20190116183704 38 265 3.0 9.0 0.00 0.00 0.00 61 1017.0
20190116183204 37 249 2.0 13.0 0.00 0.00 0.00 61 1017.0
20190116182705 37 174 5.0 13.0 0.00 0.00 0.00 61 1017.1
20190116182204 37 191 5.0 9.0 0.00 0.00 0.00 61 1017.0
20190116181703 37 237 1.0 10.0 0.00 0.00 0.00 61 1017.0
20190116181203 37 242 3.0 10.0 0.00 0.00 0.00 61 1017.0
20190116180704 37 301 4.0 10.0 0.00 0.00 0.00 62 1017.2
20190116180203 37 242 4.0 10.0 0.00 0.00 0.00 62 1017.2
20190116175704 37 252 3.0 10.0 0.00 0.00 0.00 62 1017.3
20190116175204 37 258 5.0 9.0 0.00 0.00 0.00 61 1017.4
20190116174704 37 259 2.0 9.0 0.00 0.00 0.00 62 1017.5
20190116174203 37 230 4.0 7.0 0.00 0.00 0.00 61 1017.5
20190116173704 37 252 2.0 12.0 0.00 0.00 0.00 62 1017.5
20190116173204 37 281 3.0 15.0 0.00 0.00 0.00 61 1017.5
20190116172703 37 243 7.0 15.0 0.00 0.00 0.00 61 1017.5
20190116172203 37 227 5.0 10.0 0.00 0.00 0.00 61 1017.6
20190116171704 37 255 4.0 7.0 0.00 0.00 0.00 62 1017.6
20190116171204 37 224 1.0 12.0 0.00 0.00 0.00 61 1017.7
20190116170704 37 205 4.0 12.0 0.00 0.00 0.00 61 1017.9
20190116170203 37 236 5.0 10.0 0.00 0.00 0.00 61 1018.0
20190116165704 37 249 3.0 10.0 0.00 0.00 0.00 61 1018.0
20190116165204 37 274 4.0 10.0 0.00 0.00 0.00 60 1018.1
20190116164703 37 239 4.0 10.0 0.00 0.00 0.00 60 1018.1
20190116164204 37 289 4.0 12.0 0.00 0.00 0.00 60 1018.1
20190116163703 38 226 5.0 12.0 0.00 0.00 0.00 59 1018.1
20190116163204 37 280 4.0 9.0 0.00 0.00 0.00 62 1018.2
20190116162704 36 218 2.0 12.0 0.00 0.00 0.00 64 1018.2
20190116162203 36 300 4.0 12.0 0.00 0.00 0.00 64 1018.4
20190116161704 35 234 2.0 9.0 0.00 0.00 0.00 65 1018.5
20190116161203 35 280 2.0 9.0 0.00 0.00 0.00 65 1018.5
20190116160704 35 230 4.0 10.0 0.00 0.00 0.00 65 1018.6
20190116160204 35 263 3.0 10.0 0.00 0.00 0.00 66 1018.8
20190116155704 35 289 4.0 10.0 0.00 0.00 0.00 66 1018.9
20190116155203 35 230 2.0 9.0 0.00 0.00 0.00 67 1018.9
20190116154704 34 130 3.0 9.0 0.00 0.00 0.00 67 1019.0
20190116154203 34 236 4.0 9.0 0.00 0.00 0.00 67 1019.0
20190116153703 34 254 4.0 9.0 0.00 0.00 0.00 68 1019.0
20190116153204 34 230 3.0 9.0 0.00 0.00 0.00 69 1019.0
20190116152704 34 294 3.0 8.0 0.00 0.00 0.00 70 1019.0
20190116152204 33 181 3.0 8.0 0.00 0.00 0.00 70 1019.0
20190116151704 33 275 5.0 8.0 0.00 0.00 0.00 70 1018.9
20190116151203 33 237 2.0 8.0 0.00 0.00 0.00 70 1019.0
20190116150704 33 186 3.0 10.0 0.00 0.00 0.00 71 1018.9
20190116150204 33 207 3.0 12.0 0.00 0.00 0.00 71 1018.8
20190116145704 33 200 3.0 12.0 0.00 0.00 0.00 71 1018.7
20190116145203 33 243 5.0 12.0 0.00 0.00 0.00 71 1018.6
20190116144704 32 234 2.0 12.0 0.00 0.00 0.00 71 1018.6
20190116144204 32 250 4.0 12.0 0.00 0.00 0.00 71 1018.6
20190116143703 32 217 5.0 9.0 0.00 0.00 0.00 71 1018.5
20190116143204 32 207 4.0 9.0 0.00 0.00 0.00 71 1018.5
20190116142704 32 195 3.0 12.0 0.00 0.00 0.00 71 1018.3
20190116142204 32 223 3.0 12.0 0.00 0.00 0.00 71 1018.1
20190116141704 32 222 4.0 12.0 0.00 0.00 0.00 71 1018.1
20190116141204 32 230 4.0 12.0 0.00 0.00 0.00 72 1018.0
20190116140704 32 242 3.0 12.0 0.00 0.00 0.00 72 1018.0
20190116140203 32 232 2.0 10.0 0.00 0.00 0.00 72 1018.0
20190116135704 31 235 5.0 10.0 0.00 0.00 0.00 71 1018.0
20190116135203 31 225 5.0 10.0 0.00 0.00 0.00 71 1018.0
20190116134704 31 217 4.0 10.0 0.00 0.00 0.00 71 1018.0
20190116134204 31 240 2.0 10.0 0.00 0.00 0.00 71 1017.9
20190116133704 31 227 5.0 12.0 0.00 0.00 0.00 72 1017.8
20190116133205 31 215 5.0 12.0 0.00 0.00 0.00 72 1017.9
20190116132704 31 235 5.0 10.0 0.00 0.00 0.00 72 1017.8
20190116132204 31 245 3.0 10.0 0.00 0.00 0.00 72 1017.8
20190116131704 31 254 3.0 10.0 0.00 0.00 0.00 72 1017.8
20190116131204 31 221 5.0 10.0 0.00 0.00 0.00 72 1017.8
20190116130704 31 288 3.0 12.0 0.00 0.00 0.00 72 1017.7
20190116130204 30 213 5.0 12.0 0.00 0.00 0.00 72 1017.6
20190116125704 30 157 5.0 9.0 0.00 0.00 0.00 72 1017.6